owner,sensor,date,latitude,longitude,sea_surface_height_above_sea_level,qcFlag 
COMPS,ioos:station:USF.COMPS:BGC:1,2011-09-01T00:00:00Z,26.4040,-81.8810,-0.143,1111122 
COMPS,ioos:station:USF.COMPS:BGC:1,2011-09-01T00:06:00Z,26.4040,-81.8810,-0.163,1111122 
COMPS,ioos:station:USF.COMPS:BGC:1,2011-09-01T00:12:00Z,26.4040,-81.8810,-0.156,1111122 
COMPS,ioos:station:USF.COMPS:BGC:1,2011-09-01T00:18:00Z,26.4040,-81.8810,-0.168,1111122 
COMPS,ioos:station:USF.COMPS:BGC:1,2011-09-01T00:24:00Z,26.4040,-81.8810,-0.183,1111122 
COMPS,ioos:station:USF.COMPS:BGC:1,2011-09-01T00:30:00Z,26.4040,-81.8810,-0.188,1111122 
COMPS,ioos:station:USF.COMPS:BGC:1,2011-09-01T00:36:00Z,26.4040,-81.8810,-0.201,1111122 
COMPS,ioos:station:USF.COMPS:BGC:1,2011-09-01T00:42:00Z,26.4040,-81.8810,-0.225,1111122 
COMPS,ioos:station:USF.COMPS:BGC:1,2011-09-01T00:48:00Z,26.4040,-81.8810,-0.235,1111122 
COMPS,ioos:station:USF.COMPS:BGC:1,2011-09-01T00:54:00Z,26.4040,-81.8810,-0.239,1111122 
COMPS,ioos:station:USF.COMPS:BGC:1,2011-09-01T01:00:00Z,26.4040,-81.8810,-0.247,1111122 
COMPS,ioos:station:USF.COMPS:BGC:1,2011-09-01T01:06:00Z,26.4040,-81.8810,-0.272,1111122 
COMPS,ioos:station:USF.COMPS:BGC:1,2011-09-01T01:12:00Z,26.4040,-81.8810,-0.279,1111122 
COMPS,ioos:station:USF.COMPS:BGC:1,2011-09-01T01:18:00Z,26.4040,-81.8810,-0.27,1111122 
COMPS,ioos:station:USF.COMPS:BGC:1,2011-09-01T01:24:00Z,26.4040,-81.8810,-0.27,1111122 
COMPS,ioos:station:USF.COMPS:BGC:1,2011-09-01T01:30:00Z,26.4040,-81.8810,-0.277,1111122 
COMPS,ioos:station:USF.COMPS:BGC:1,2011-09-01T01:36:00Z,26.4040,-81.8810,-0.278,1111122 
COMPS,ioos:station:USF.COMPS:BGC:1,2011-09-01T01:42:00Z,26.4040,-81.8810,-0.277,1111122 
COMPS,ioos:station:USF.COMPS:BGC:1,2011-09-01T01:48:00Z,26.4040,-81.8810,-0.285,1111122 
COMPS,ioos:station:USF.COMPS:BGC:1,2011-09-01T01:54:00Z,26.4040,-81.8810,-0.28,1111122 
COMPS,ioos:station:USF.COMPS:BGC:1,2011-09-01T02:00:00Z,26.4040,-81.8810,-0.277,1111122 
COMPS,ioos:station:USF.COMPS:BGC:1,2011-09-01T02:06:00Z,26.4040,-81.8810,-0.273,1111122 
COMPS,ioos:station:USF.COMPS:BGC:1,2011-09-01T02:12:00Z,26.4040,-81.8810,-0.272,1111122 
COMPS,ioos:station:USF.COMPS:BGC:1,2011-09-01T02:18:00Z,26.4040,-81.8810,-0.284,1111122 
COMPS,ioos:station:USF.COMPS:BGC:1,2011-09-01T02:24:00Z,26.4040,-81.8810,-0.281,1111122 
COMPS,ioos:station:USF.COMPS:BGC:1,2011-09-01T02:30:00Z,26.4040,-81.8810,-0.269,1111122 
COMPS,ioos:station:USF.COMPS:BGC:1,2011-09-01T02:36:00Z,26.4040,-81.8810,-0.259,1111122 
COMPS,ioos:station:USF.COMPS:BGC:1,2011-09-01T02:42:00Z,26.4040,-81.8810,-0.249,1111122 
COMPS,ioos:station:USF.COMPS:BGC:1,2011-09-01T02:48:00Z,26.4040,-81.8810,-0.237,1111122 
COMPS,ioos:station:USF.COMPS:BGC:1,2011-09-01T02:54:00Z,26.4040,-81.8810,-0.198,1111122 
COMPS,ioos:station:USF.COMPS:BGC:1,2011-09-01T03:00:00Z,26.4040,-81.8810,-0.181,1111122 
COMPS,ioos:station:USF.COMPS:BGC:1,2011-09-01T03:06:00Z,26.4040,-81.8810,-0.172,1111122 
COMPS,ioos:station:USF.COMPS:BGC:1,2011-09-01T03:12:00Z,26.4040,-81.8810,-0.168,1111122 
COMPS,ioos:station:USF.COMPS:BGC:1,2011-09-01T03:18:00Z,26.4040,-81.8810,-0.148,1111122 
COMPS,ioos:station:USF.COMPS:BGC:1,2011-09-01T03:24:00Z,26.4040,-81.8810,-0.131,1111122 
COMPS,ioos:station:USF.COMPS:BGC:1,2011-09-01T03:30:00Z,26.4040,-81.8810,-0.126,1111122 
COMPS,ioos:station:USF.COMPS:BGC:1,2011-09-01T03:36:00Z,26.4040,-81.8810,-0.11,1111122 
COMPS,ioos:station:USF.COMPS:BGC:1,2011-09-01T03:42:00Z,26.4040,-81.8810,-0.074,1111122 
COMPS,ioos:station:USF.COMPS:BGC:1,2011-09-01T03:48:00Z,26.4040,-81.8810,-0.054,1111122 
COMPS,ioos:station:USF.COMPS:BGC:1,2011-09-01T03:54:00Z,26.4040,-81.8810,-0.039,1111122 
COMPS,ioos:station:USF.COMPS:BGC:1,2011-09-01T19:00:00Z,26.4040,-81.8810,0.129,1111122 
COMPS,ioos:station:USF.COMPS:BGC:1,2011-09-01T19:06:00Z,26.4040,-81.8810,0.141,1111122 
COMPS,ioos:station:USF.COMPS:BGC:1,2011-09-01T19:12:00Z,26.4040,-81.8810,0.149,1111122 
COMPS,ioos:station:USF.COMPS:BGC:1,2011-09-01T19:18:00Z,26.4040,-81.8810,0.164,1111122 
COMPS,ioos:station:USF.COMPS:BGC:1,2011-09-01T19:24:00Z,26.4040,-81.8810,0.179,1111122 
COMPS,ioos:station:USF.COMPS:BGC:1,2011-09-01T19:30:00Z,26.4040,-81.8810,0.189,1111122 
COMPS,ioos:station:USF.COMPS:BGC:1,2011-09-01T19:36:00Z,26.4040,-81.8810,0.196,1111122 
COMPS,ioos:station:USF.COMPS:BGC:1,2011-09-01T19:42:00Z,26.4040,-81.8810,0.216,1111122 
COMPS,ioos:station:USF.COMPS:BGC:1,2011-09-01T19:48:00Z,26.4040,-81.8810,0.224,1111122 
COMPS,ioos:station:USF.COMPS:BGC:1,2011-09-01T19:54:00Z,26.4040,-81.8810,0.225,1111122 
COMPS,ioos:station:USF.COMPS:BGC:1,2011-09-01T20:00:00Z,26.4040,-81.8810,0.225,1111122 
COMPS,ioos:station:USF.COMPS:BGC:1,2011-09-01T20:06:00Z,26.4040,-81.8810,0.239,1111122 
COMPS,ioos:station:USF.COMPS:BGC:1,2011-09-01T20:12:00Z,26.4040,-81.8810,0.246,1111122 
COMPS,ioos:station:USF.COMPS:BGC:1,2011-09-01T20:18:00Z,26.4040,-81.8810,0.269,1111122 
COMPS,ioos:station:USF.COMPS:BGC:1,2011-09-01T20:24:00Z,26.4040,-81.8810,0.275,1111122 
COMPS,ioos:station:USF.COMPS:BGC:1,2011-09-01T20:30:00Z,26.4040,-81.8810,0.279,1111122 
COMPS,ioos:station:USF.COMPS:BGC:1,2011-09-01T20:36:00Z,26.4040,-81.8810,0.26,1111122 
COMPS,ioos:station:USF.COMPS:BGC:1,2011-09-01T20:42:00Z,26.4040,-81.8810,0.266,1111122 
COMPS,ioos:station:USF.COMPS:BGC:1,2011-09-01T20:48:00Z,26.4040,-81.8810,0.29,1111122 
COMPS,ioos:station:USF.COMPS:BGC:1,2011-09-01T20:54:00Z,26.4040,-81.8810,0.288,1111122 
COMPS,ioos:station:USF.COMPS:BGC:1,2011-09-01T21:00:00Z,26.4040,-81.8810,0.278,1111122 
COMPS,ioos:station:USF.COMPS:BGC:1,2011-09-01T21:06:00Z,26.4040,-81.8810,0.279,1111122 
COMPS,ioos:station:USF.COMPS:BGC:1,2011-09-01T21:12:00Z,26.4040,-81.8810,0.287,1111122 
COMPS,ioos:station:USF.COMPS:BGC:1,2011-09-01T21:18:00Z,26.4040,-81.8810,0.287,1111122 
COMPS,ioos:station:USF.COMPS:BGC:1,2011-09-01T21:24:00Z,26.4040,-81.8810,0.268,1111122 
COMPS,ioos:station:USF.COMPS:BGC:1,2011-09-01T21:30:00Z,26.4040,-81.8810,0.266,1111122 
COMPS,ioos:station:USF.COMPS:BGC:1,2011-09-01T21:36:00Z,26.4040,-81.8810,0.27,1111122 
COMPS,ioos:station:USF.COMPS:BGC:1,2011-09-01T21:42:00Z,26.4040,-81.8810,0.259,1111122 
COMPS,ioos:station:USF.COMPS:BGC:1,2011-09-01T21:48:00Z,26.4040,-81.8810,0.233,1111122 
COMPS,ioos:station:USF.COMPS:BGC:1,2011-09-01T21:54:00Z,26.4040,-81.8810,0.228,1111122 
COMPS,ioos:station:USF.COMPS:BGC:1,2011-09-01T23:00:00Z,26.4040,-81.8810,0.067,1111122 
COMPS,ioos:station:USF.COMPS:BGC:1,2011-09-01T23:06:00Z,26.4040,-81.8810,0.063,1111122 
COMPS,ioos:station:USF.COMPS:BGC:1,2011-09-01T23:12:00Z,26.4040,-81.8810,0.029,1111122 
COMPS,ioos:station:USF.COMPS:BGC:1,2011-09-01T23:18:00Z,26.4040,-81.8810,0.031,1111122 
COMPS,ioos:station:USF.COMPS:BGC:1,2011-09-01T23:24:00Z,26.4040,-81.8810,0.017,1111122 
COMPS,ioos:station:USF.COMPS:BGC:1,2011-09-01T23:30:00Z,26.4040,-81.8810,0.012,1111122 
COMPS,ioos:station:USF.COMPS:BGC:1,2011-09-01T23:36:00Z,26.4040,-81.8810,-0.001,1111122 
COMPS,ioos:station:USF.COMPS:BGC:1,2011-09-01T23:42:00Z,26.4040,-81.8810,-0.021,1111122 
COMPS,ioos:station:USF.COMPS:BGC:1,2011-09-01T23:48:00Z,26.4040,-81.8810,-0.028,1111122 
COMPS,ioos:station:USF.COMPS:BGC:1,2011-09-01T23:54:00Z,26.4040,-81.8810,-0.036,1111122 
COMPS,ioos:station:USF.COMPS:BGC:1,2011-09-02T00:00:00Z,26.4040,-81.8810,-0.04,1111122 
COMPS,ioos:station:USF.COMPS:BGC:1,2011-09-02T00:06:00Z,26.4040,-81.8810,-0.049,1111122 
COMPS,ioos:station:USF.COMPS:BGC:1,2011-09-02T00:12:00Z,26.4040,-81.8810,-0.068,1111122 
COMPS,ioos:station:USF.COMPS:BGC:1,2011-09-02T00:18:00Z,26.4040,-81.8810,-0.07,1111122 
COMPS,ioos:station:USF.COMPS:BGC:1,2011-09-02T00:24:00Z,26.4040,-81.8810,-0.069,1111122 
COMPS,ioos:station:USF.COMPS:BGC:1,2011-09-02T00:30:00Z,26.4040,-81.8810,-0.08,1111122 
COMPS,ioos:station:USF.COMPS:BGC:1,2011-09-02T00:36:00Z,26.4040,-81.8810,-0.09,1111122 
COMPS,ioos:station:USF.COMPS:BGC:1,2011-09-02T00:42:00Z,26.4040,-81.8810,-0.098,1111122 
COMPS,ioos:station:USF.COMPS:BGC:1,2011-09-02T00:48:00Z,26.4040,-81.8810,-0.107,1111122 
COMPS,ioos:station:USF.COMPS:BGC:1,2011-09-02T00:54:00Z,26.4040,-81.8810,-0.116,1111122 
COMPS,ioos:station:USF.COMPS:BGC:1,2011-09-02T01:00:00Z,26.4040,-81.8810,-0.119,1111122 
COMPS,ioos:station:USF.COMPS:BGC:1,2011-09-02T01:06:00Z,26.4040,-81.8810,-0.117,1111122 
COMPS,ioos:station:USF.COMPS:BGC:1,2011-09-02T01:12:00Z,26.4040,-81.8810,-0.125,1111122 
COMPS,ioos:station:USF.COMPS:BGC:1,2011-09-02T01:18:00Z,26.4040,-81.8810,-0.123,1111122 
COMPS,ioos:station:USF.COMPS:BGC:1,2011-09-02T01:24:00Z,26.4040,-81.8810,-0.134,1111122 
COMPS,ioos:station:USF.COMPS:BGC:1,2011-09-02T01:30:00Z,26.4040,-81.8810,-0.146,1111122 
COMPS,ioos:station:USF.COMPS:BGC:1,2011-09-02T01:36:00Z,26.4040,-81.8810,-0.152,1111122 
COMPS,ioos:station:USF.COMPS:BGC:1,2011-09-02T01:42:00Z,26.4040,-81.8810,-0.165,1111122 
COMPS,ioos:station:USF.COMPS:BGC:1,2011-09-02T01:48:00Z,26.4040,-81.8810,-0.163,1111122 
COMPS,ioos:station:USF.COMPS:BGC:1,2011-09-02T01:54:00Z,26.4040,-81.8810,-0.17,1111122 
COMPS,ioos:station:USF.COMPS:BGC:1,2011-09-02T02:00:00Z,26.4040,-81.8810,-0.166,1111122 
COMPS,ioos:station:USF.COMPS:BGC:1,2011-09-02T02:06:00Z,26.4040,-81.8810,-0.163,1111122 
COMPS,ioos:station:USF.COMPS:BGC:1,2011-09-02T02:12:00Z,26.4040,-81.8810,-0.167,1111122 
COMPS,ioos:station:USF.COMPS:BGC:1,2011-09-02T02:18:00Z,26.4040,-81.8810,-0.182,1111122 
COMPS,ioos:station:USF.COMPS:BGC:1,2011-09-02T02:24:00Z,26.4040,-81.8810,-0.181,1111122 
COMPS,ioos:station:USF.COMPS:BGC:1,2011-09-02T02:30:00Z,26.4040,-81.8810,-0.176,1111122 
COMPS,ioos:station:USF.COMPS:BGC:1,2011-09-02T02:36:00Z,26.4040,-81.8810,-0.174,1111122 
COMPS,ioos:station:USF.COMPS:BGC:1,2011-09-02T02:42:00Z,26.4040,-81.8810,-0.186,1111122 
COMPS,ioos:station:USF.COMPS:BGC:1,2011-09-02T02:48:00Z,26.4040,-81.8810,-0.18,1111122 
COMPS,ioos:station:USF.COMPS:BGC:1,2011-09-02T02:54:00Z,26.4040,-81.8810,-0.168,1111122 
COMPS,ioos:station:USF.COMPS:BGC:1,2011-09-02T03:00:00Z,26.4040,-81.8810,-0.153,1111122 
COMPS,ioos:station:USF.COMPS:BGC:1,2011-09-02T03:06:00Z,26.4040,-81.8810,-0.156,1111122 
COMPS,ioos:station:USF.COMPS:BGC:1,2011-09-02T03:12:00Z,26.4040,-81.8810,-0.142,1111122 
COMPS,ioos:station:USF.COMPS:BGC:1,2011-09-02T03:18:00Z,26.4040,-81.8810,-0.138,1111122 
COMPS,ioos:station:USF.COMPS:BGC:1,2011-09-02T03:24:00Z,26.4040,-81.8810,-0.142,1111122 
COMPS,ioos:station:USF.COMPS:BGC:1,2011-09-02T03:30:00Z,26.4040,-81.8810,-0.143,1111122 
COMPS,ioos:station:USF.COMPS:BGC:1,2011-09-02T03:36:00Z,26.4040,-81.8810,-0.135,1111122 
COMPS,ioos:station:USF.COMPS:BGC:1,2011-09-02T03:42:00Z,26.4040,-81.8810,-0.127,1111122 
COMPS,ioos:station:USF.COMPS:BGC:1,2011-09-02T03:48:00Z,26.4040,-81.8810,-0.105,1111122 
COMPS,ioos:station:USF.COMPS:BGC:1,2011-09-02T03:54:00Z,26.4040,-81.8810,-0.093,1111122 
COMPS,ioos:station:USF.COMPS:BGC:1,2011-09-02T04:00:00Z,26.4040,-81.8810,-0.07,1111122 
COMPS,ioos:station:USF.COMPS:BGC:1,2011-09-02T04:06:00Z,26.4040,-81.8810,-0.058,1111122 
COMPS,ioos:station:USF.COMPS:BGC:1,2011-09-02T04:12:00Z,26.4040,-81.8810,-0.056,1111122 
COMPS,ioos:station:USF.COMPS:BGC:1,2011-09-02T04:18:00Z,26.4040,-81.8810,-0.045,1111122 
COMPS,ioos:station:USF.COMPS:BGC:1,2011-09-02T04:24:00Z,26.4040,-81.8810,-0.024,1111122 
COMPS,ioos:station:USF.COMPS:BGC:1,2011-09-02T04:30:00Z,26.4040,-81.8810,0.0,1114422 
COMPS,ioos:station:USF.COMPS:BGC:1,2011-09-02T04:36:00Z,26.4040,-81.8810,0.014,1111122 
COMPS,ioos:station:USF.COMPS:BGC:1,2011-09-02T04:42:00Z,26.4040,-81.8810,0.03,1111122 
COMPS,ioos:station:USF.COMPS:BGC:1,2011-09-02T04:48:00Z,26.4040,-81.8810,0.05,1111122 
COMPS,ioos:station:USF.COMPS:BGC:1,2011-09-02T04:54:00Z,26.4040,-81.8810,0.063,1111122 
COMPS,ioos:station:USF.COMPS:BGC:1,2011-09-02T05:00:00Z,26.4040,-81.8810,0.069,1111122 
COMPS,ioos:station:USF.COMPS:BGC:1,2011-09-02T05:06:00Z,26.4040,-81.8810,0.092,1111122 
COMPS,ioos:station:USF.COMPS:BGC:1,2011-09-02T05:12:00Z,26.4040,-81.8810,0.111,1111122 
COMPS,ioos:station:USF.COMPS:BGC:1,2011-09-02T05:18:00Z,26.4040,-81.8810,0.123,1111122 
COMPS,ioos:station:USF.COMPS:BGC:1,2011-09-02T05:24:00Z,26.4040,-81.8810,0.135,1111122 
COMPS,ioos:station:USF.COMPS:BGC:1,2011-09-02T05:30:00Z,26.4040,-81.8810,0.158,1111122 
COMPS,ioos:station:USF.COMPS:BGC:1,2011-09-02T05:36:00Z,26.4040,-81.8810,0.18,1111122 
COMPS,ioos:station:USF.COMPS:BGC:1,2011-09-02T05:42:00Z,26.4040,-81.8810,0.189,1111122 
COMPS,ioos:station:USF.COMPS:BGC:1,2011-09-02T05:48:00Z,26.4040,-81.8810,0.211,1111122 
COMPS,ioos:station:USF.COMPS:BGC:1,2011-09-02T05:54:00Z,26.4040,-81.8810,0.219,1111122 
COMPS,ioos:station:USF.COMPS:BGC:1,2011-09-02T06:00:00Z,26.4040,-81.8810,0.226,1111122 
COMPS,ioos:station:USF.COMPS:BGC:1,2011-09-02T06:06:00Z,26.4040,-81.8810,0.242,1111122 
COMPS,ioos:station:USF.COMPS:BGC:1,2011-09-02T06:12:00Z,26.4040,-81.8810,0.262,1111122 
COMPS,ioos:station:USF.COMPS:BGC:1,2011-09-02T06:18:00Z,26.4040,-81.8810,0.276,1111122 
COMPS,ioos:station:USF.COMPS:BGC:1,2011-09-02T06:24:00Z,26.4040,-81.8810,0.292,1111122 
COMPS,ioos:station:USF.COMPS:BGC:1,2011-09-02T06:30:00Z,26.4040,-81.8810,0.304,1111122 
COMPS,ioos:station:USF.COMPS:BGC:1,2011-09-02T06:36:00Z,26.4040,-81.8810,0.312,1111122 
COMPS,ioos:station:USF.COMPS:BGC:1,2011-09-02T06:42:00Z,26.4040,-81.8810,0.318,1111122 
COMPS,ioos:station:USF.COMPS:BGC:1,2011-09-02T06:48:00Z,26.4040,-81.8810,0.325,1111122 
COMPS,ioos:station:USF.COMPS:BGC:1,2011-09-02T06:54:00Z,26.4040,-81.8810,0.339,1111122 
COMPS,ioos:station:USF.COMPS:BGC:1,2011-09-02T07:00:00Z,26.4040,-81.8810,0.344,1111122 
COMPS,ioos:station:USF.COMPS:BGC:1,2011-09-02T07:06:00Z,26.4040,-81.8810,0.355,1111122 
COMPS,ioos:station:USF.COMPS:BGC:1,2011-09-02T07:12:00Z,26.4040,-81.8810,0.37,1111122 
COMPS,ioos:station:USF.COMPS:BGC:1,2011-09-02T07:18:00Z,26.4040,-81.8810,0.377,1111122 
COMPS,ioos:station:USF.COMPS:BGC:1,2011-09-02T07:24:00Z,26.4040,-81.8810,0.374,1111122 
COMPS,ioos:station:USF.COMPS:BGC:1,2011-09-02T07:30:00Z,26.4040,-81.8810,0.381,1111122 
COMPS,ioos:station:USF.COMPS:BGC:1,2011-09-02T07:36:00Z,26.4040,-81.8810,0.391,1111122 
COMPS,ioos:station:USF.COMPS:BGC:1,2011-09-02T07:42:00Z,26.4040,-81.8810,0.388,1111122 
COMPS,ioos:station:USF.COMPS:BGC:1,2011-09-02T07:48:00Z,26.4040,-81.8810,0.39,1111122 
COMPS,ioos:station:USF.COMPS:BGC:1,2011-09-02T07:54:00Z,26.4040,-81.8810,0.393,1111122 
COMPS,ioos:station:USF.COMPS:BGC:1,2011-09-02T08:00:00Z,26.4040,-81.8810,0.392,1111122 
COMPS,ioos:station:USF.COMPS:BGC:1,2011-09-02T08:06:00Z,26.4040,-81.8810,0.383,1111122 
COMPS,ioos:station:USF.COMPS:BGC:1,2011-09-02T08:12:00Z,26.4040,-81.8810,0.386,1111122 
COMPS,ioos:station:USF.COMPS:BGC:1,2011-09-02T08:18:00Z,26.4040,-81.8810,0.384,1111122 
COMPS,ioos:station:USF.COMPS:BGC:1,2011-09-02T08:24:00Z,26.4040,-81.8810,0.38,1111122 
COMPS,ioos:station:USF.COMPS:BGC:1,2011-09-02T08:30:00Z,26.4040,-81.8810,0.383,1111122 
COMPS,ioos:station:USF.COMPS:BGC:1,2011-09-02T08:36:00Z,26.4040,-81.8810,0.383,1111122 
COMPS,ioos:station:USF.COMPS:BGC:1,2011-09-02T08:42:00Z,26.4040,-81.8810,0.386,1111122 
COMPS,ioos:station:USF.COMPS:BGC:1,2011-09-02T08:48:00Z,26.4040,-81.8810,0.376,1111122 
COMPS,ioos:station:USF.COMPS:BGC:1,2011-09-02T08:54:00Z,26.4040,-81.8810,0.361,1111122 
COMPS,ioos:station:USF.COMPS:BGC:1,2011-09-02T09:00:00Z,26.4040,-81.8810,0.366,1111122 
COMPS,ioos:station:USF.COMPS:BGC:1,2011-09-02T09:06:00Z,26.4040,-81.8810,0.356,1111122 
COMPS,ioos:station:USF.COMPS:BGC:1,2011-09-02T09:12:00Z,26.4040,-81.8810,0.339,1111122 
COMPS,ioos:station:USF.COMPS:BGC:1,2011-09-02T09:18:00Z,26.4040,-81.8810,0.344,1111122 
COMPS,ioos:station:USF.COMPS:BGC:1,2011-09-02T09:24:00Z,26.4040,-81.8810,0.337,1111122 
COMPS,ioos:station:USF.COMPS:BGC:1,2011-09-02T09:30:00Z,26.4040,-81.8810,0.319,1111122 
COMPS,ioos:station:USF.COMPS:BGC:1,2011-09-02T09:36:00Z,26.4040,-81.8810,0.306,1111122 
COMPS,ioos:station:USF.COMPS:BGC:1,2011-09-02T09:42:00Z,26.4040,-81.8810,0.298,1111122 
COMPS,ioos:station:USF.COMPS:BGC:1,2011-09-02T09:48:00Z,26.4040,-81.8810,0.274,1111122 
COMPS,ioos:station:USF.COMPS:BGC:1,2011-09-02T09:54:00Z,26.4040,-81.8810,0.261,1111122 
COMPS,ioos:station:USF.COMPS:BGC:1,2011-09-02T10:00:00Z,26.4040,-81.8810,0.253,1111122 
COMPS,ioos:station:USF.COMPS:BGC:1,2011-09-02T10:06:00Z,26.4040,-81.8810,0.231,1111122 
COMPS,ioos:station:USF.COMPS:BGC:1,2011-09-02T10:12:00Z,26.4040,-81.8810,0.217,1111122 
COMPS,ioos:station:USF.COMPS:BGC:1,2011-09-02T10:18:00Z,26.4040,-81.8810,0.201,1111122 
COMPS,ioos:station:USF.COMPS:BGC:1,2011-09-02T10:24:00Z,26.4040,-81.8810,0.185,1111122 
COMPS,ioos:station:USF.COMPS:BGC:1,2011-09-02T10:30:00Z,26.4040,-81.8810,0.161,1111122 
COMPS,ioos:station:USF.COMPS:BGC:1,2011-09-02T10:36:00Z,26.4040,-81.8810,0.154,1111122 
COMPS,ioos:station:USF.COMPS:BGC:1,2011-09-02T10:42:00Z,26.4040,-81.8810,0.135,1111122 
COMPS,ioos:station:USF.COMPS:BGC:1,2011-09-02T10:48:00Z,26.4040,-81.8810,0.119,1111122 
COMPS,ioos:station:USF.COMPS:BGC:1,2011-09-02T10:54:00Z,26.4040,-81.8810,0.108,1111122 
COMPS,ioos:station:USF.COMPS:BGC:1,2011-09-02T11:00:00Z,26.4040,-81.8810,0.083,1111122 
COMPS,ioos:station:USF.COMPS:BGC:1,2011-09-02T11:06:00Z,26.4040,-81.8810,0.06,1111122 
COMPS,ioos:station:USF.COMPS:BGC:1,2011-09-02T11:12:00Z,26.4040,-81.8810,0.052,1111122 
COMPS,ioos:station:USF.COMPS:BGC:1,2011-09-02T11:18:00Z,26.4040,-81.8810,0.04,1111122 
COMPS,ioos:station:USF.COMPS:BGC:1,2011-09-02T11:24:00Z,26.4040,-81.8810,0.023,1111122 
COMPS,ioos:station:USF.COMPS:BGC:1,2011-09-02T11:30:00Z,26.4040,-81.8810,0.009,1111122 
COMPS,ioos:station:USF.COMPS:BGC:1,2011-09-02T11:36:00Z,26.4040,-81.8810,0.0,1114422 
COMPS,ioos:station:USF.COMPS:BGC:1,2011-09-02T11:42:00Z,26.4040,-81.8810,-0.02,1111122 
COMPS,ioos:station:USF.COMPS:BGC:1,2011-09-02T11:48:00Z,26.4040,-81.8810,-0.03,1111122 
COMPS,ioos:station:USF.COMPS:BGC:1,2011-09-02T11:54:00Z,26.4040,-81.8810,-0.044,1111122 
COMPS,ioos:station:USF.COMPS:BGC:1,2011-09-02T12:00:00Z,26.4040,-81.8810,-0.064,1111122 
COMPS,ioos:station:USF.COMPS:BGC:1,2011-09-02T12:06:00Z,26.4040,-81.8810,-0.08,1111122 
COMPS,ioos:station:USF.COMPS:BGC:1,2011-09-02T12:12:00Z,26.4040,-81.8810,-0.098,1111122 
COMPS,ioos:station:USF.COMPS:BGC:1,2011-09-02T12:18:00Z,26.4040,-81.8810,-0.115,1111122 
COMPS,ioos:station:USF.COMPS:BGC:1,2011-09-02T12:24:00Z,26.4040,-81.8810,-0.122,1111122 
COMPS,ioos:station:USF.COMPS:BGC:1,2011-09-02T12:30:00Z,26.4040,-81.8810,-0.143,1111122 
COMPS,ioos:station:USF.COMPS:BGC:1,2011-09-02T12:36:00Z,26.4040,-81.8810,-0.159,1111122 
COMPS,ioos:station:USF.COMPS:BGC:1,2011-09-02T12:42:00Z,26.4040,-81.8810,-0.171,1111122 
COMPS,ioos:station:USF.COMPS:BGC:1,2011-09-02T12:48:00Z,26.4040,-81.8810,-0.187,1111122 
COMPS,ioos:station:USF.COMPS:BGC:1,2011-09-02T12:54:00Z,26.4040,-81.8810,-0.199,1111122 
COMPS,ioos:station:USF.COMPS:BGC:1,2011-09-02T13:00:00Z,26.4040,-81.8810,-0.212,1111122 
COMPS,ioos:station:USF.COMPS:BGC:1,2011-09-02T13:06:00Z,26.4040,-81.8810,-0.226,1111122 
COMPS,ioos:station:USF.COMPS:BGC:1,2011-09-02T13:12:00Z,26.4040,-81.8810,-0.244,1111122 
COMPS,ioos:station:USF.COMPS:BGC:1,2011-09-02T13:18:00Z,26.4040,-81.8810,-0.262,1111122 
COMPS,ioos:station:USF.COMPS:BGC:1,2011-09-02T13:24:00Z,26.4040,-81.8810,-0.274,1111122 
COMPS,ioos:station:USF.COMPS:BGC:1,2011-09-02T13:30:00Z,26.4040,-81.8810,-0.289,1111122 
COMPS,ioos:station:USF.COMPS:BGC:1,2011-09-02T13:36:00Z,26.4040,-81.8810,-0.3,1111122 
COMPS,ioos:station:USF.COMPS:BGC:1,2011-09-02T13:42:00Z,26.4040,-81.8810,-0.311,1111122 
COMPS,ioos:station:USF.COMPS:BGC:1,2011-09-02T13:48:00Z,26.4040,-81.8810,-0.321,1111122 
COMPS,ioos:station:USF.COMPS:BGC:1,2011-09-02T13:54:00Z,26.4040,-81.8810,-0.331,1111122 
COMPS,ioos:station:USF.COMPS:BGC:1,2011-09-02T14:00:00Z,26.4040,-81.8810,-0.345,1111122 
COMPS,ioos:station:USF.COMPS:BGC:1,2011-09-02T14:06:00Z,26.4040,-81.8810,-0.352,1111122 
COMPS,ioos:station:USF.COMPS:BGC:1,2011-09-02T14:12:00Z,26.4040,-81.8810,-0.366,1111122 
COMPS,ioos:station:USF.COMPS:BGC:1,2011-09-02T14:18:00Z,26.4040,-81.8810,-0.377,1111122 
COMPS,ioos:station:USF.COMPS:BGC:1,2011-09-02T14:24:00Z,26.4040,-81.8810,-0.388,1111122 
COMPS,ioos:station:USF.COMPS:BGC:1,2011-09-02T14:30:00Z,26.4040,-81.8810,-0.396,1111122 
COMPS,ioos:station:USF.COMPS:BGC:1,2011-09-02T14:36:00Z,26.4040,-81.8810,-0.398,1111122 
COMPS,ioos:station:USF.COMPS:BGC:1,2011-09-02T14:42:00Z,26.4040,-81.8810,-0.408,1111122 
COMPS,ioos:station:USF.COMPS:BGC:1,2011-09-02T14:48:00Z,26.4040,-81.8810,-0.415,1111122 
COMPS,ioos:station:USF.COMPS:BGC:1,2011-09-02T14:54:00Z,26.4040,-81.8810,-0.42,1111122 
COMPS,ioos:station:USF.COMPS:BGC:1,2011-09-02T15:00:00Z,26.4040,-81.8810,-0.428,1111122 
COMPS,ioos:station:USF.COMPS:BGC:1,2011-09-02T15:06:00Z,26.4040,-81.8810,-0.428,1111122 
COMPS,ioos:station:USF.COMPS:BGC:1,2011-09-02T15:12:00Z,26.4040,-81.8810,-0.425,1111122 
COMPS,ioos:station:USF.COMPS:BGC:1,2011-09-02T15:18:00Z,26.4040,-81.8810,-0.427,1111122 
COMPS,ioos:station:USF.COMPS:BGC:1,2011-09-02T15:24:00Z,26.4040,-81.8810,-0.428,1111122 
COMPS,ioos:station:USF.COMPS:BGC:1,2011-09-02T15:30:00Z,26.4040,-81.8810,-0.418,1111122 
COMPS,ioos:station:USF.COMPS:BGC:1,2011-09-02T15:36:00Z,26.4040,-81.8810,-0.408,1111122 
COMPS,ioos:station:USF.COMPS:BGC:1,2011-09-02T15:42:00Z,26.4040,-81.8810,-0.396,1111122 
COMPS,ioos:station:USF.COMPS:BGC:1,2011-09-02T15:48:00Z,26.4040,-81.8810,-0.4,1111122 
COMPS,ioos:station:USF.COMPS:BGC:1,2011-09-02T15:54:00Z,26.4040,-81.8810,-0.395,1111122 
COMPS,ioos:station:USF.COMPS:BGC:1,2011-09-02T17:00:00Z,26.4040,-81.8810,-0.244,1111122 
COMPS,ioos:station:USF.COMPS:BGC:1,2011-09-02T17:06:00Z,26.4040,-81.8810,-0.229,1111122 
COMPS,ioos:station:USF.COMPS:BGC:1,2011-09-02T17:12:00Z,26.4040,-81.8810,-0.224,1111122 
COMPS,ioos:station:USF.COMPS:BGC:1,2011-09-02T17:18:00Z,26.4040,-81.8810,-0.207,1111122 
COMPS,ioos:station:USF.COMPS:BGC:1,2011-09-02T17:24:00Z,26.4040,-81.8810,-0.189,1111122 
COMPS,ioos:station:USF.COMPS:BGC:1,2011-09-02T17:30:00Z,26.4040,-81.8810,-0.172,1111122 
COMPS,ioos:station:USF.COMPS:BGC:1,2011-09-02T17:36:00Z,26.4040,-81.8810,-0.152,1111122 
COMPS,ioos:station:USF.COMPS:BGC:1,2011-09-02T17:42:00Z,26.4040,-81.8810,-0.145,1111122 
COMPS,ioos:station:USF.COMPS:BGC:1,2011-09-02T17:48:00Z,26.4040,-81.8810,-0.123,1111122 
COMPS,ioos:station:USF.COMPS:BGC:1,2011-09-02T17:54:00Z,26.4040,-81.8810,-0.107,1111122 
COMPS,ioos:station:USF.COMPS:BGC:1,2011-09-02T18:00:00Z,26.4040,-81.8810,-0.097,1111122 
COMPS,ioos:station:USF.COMPS:BGC:1,2011-09-02T18:06:00Z,26.4040,-81.8810,-0.09,1111122 
COMPS,ioos:station:USF.COMPS:BGC:1,2011-09-02T18:12:00Z,26.4040,-81.8810,-0.074,1111122 
COMPS,ioos:station:USF.COMPS:BGC:1,2011-09-02T18:18:00Z,26.4040,-81.8810,-0.059,1111122 
COMPS,ioos:station:USF.COMPS:BGC:1,2011-09-02T18:24:00Z,26.4040,-81.8810,-0.044,1111122 
COMPS,ioos:station:USF.COMPS:BGC:1,2011-09-02T18:30:00Z,26.4040,-81.8810,-0.028,1111122 
COMPS,ioos:station:USF.COMPS:BGC:1,2011-09-02T18:36:00Z,26.4040,-81.8810,-0.014,1111122 
COMPS,ioos:station:USF.COMPS:BGC:1,2011-09-02T18:42:00Z,26.4040,-81.8810,-0.003,1111122 
COMPS,ioos:station:USF.COMPS:BGC:1,2011-09-02T18:48:00Z,26.4040,-81.8810,0.005,1111122 
COMPS,ioos:station:USF.COMPS:BGC:1,2011-09-02T18:54:00Z,26.4040,-81.8810,0.013,1111122 
COMPS,ioos:station:USF.COMPS:BGC:1,2011-09-02T19:00:00Z,26.4040,-81.8810,0.027,1111122 
COMPS,ioos:station:USF.COMPS:BGC:1,2011-09-02T19:06:00Z,26.4040,-81.8810,0.039,1111122 
COMPS,ioos:station:USF.COMPS:BGC:1,2011-09-02T19:12:00Z,26.4040,-81.8810,0.052,1111122 
COMPS,ioos:station:USF.COMPS:BGC:1,2011-09-02T19:18:00Z,26.4040,-81.8810,0.071,1111122 
COMPS,ioos:station:USF.COMPS:BGC:1,2011-09-02T19:24:00Z,26.4040,-81.8810,0.082,1111122 
COMPS,ioos:station:USF.COMPS:BGC:1,2011-09-02T19:30:00Z,26.4040,-81.8810,0.086,1111122 
COMPS,ioos:station:USF.COMPS:BGC:1,2011-09-02T19:36:00Z,26.4040,-81.8810,0.101,1111122 
COMPS,ioos:station:USF.COMPS:BGC:1,2011-09-02T19:42:00Z,26.4040,-81.8810,0.114,1111122 
COMPS,ioos:station:USF.COMPS:BGC:1,2011-09-02T19:48:00Z,26.4040,-81.8810,0.114,1111122 
COMPS,ioos:station:USF.COMPS:BGC:1,2011-09-02T19:54:00Z,26.4040,-81.8810,0.123,1111122 